Regional Weather Roundup
Issued by NWS Northern Indiana

Home | Current Version | Previous Version | Graphics & Text | Print | Product List | Glossary On
Versions: 1 2 3 4 5 6 7 8 9 10 11 12 13 14 15 16 17 18 19 20 21 22 23 24 25 26 27 28 29 30 31 32 33 34 35 36 37 38 39 40 41 42 43 44 45 46 47 48 49 50
000
ASUS43 KIWX 070700
RWRIWX

KIWX WEATHER ROUNDUP
NATIONAL WEATHER SERVICE NORTHERN INDIANA
300 AM EDT TUE JUL 07 2015

NOTE: "FAIR" INDICATES FEW OR NO CLOUDS BELOW 12,000 FEET WITH NO
SIGNIFICANT WEATHER AND/OR OBSTRUCTIONS TO VISIBILITY.

* THESE STATIONS ARE NOT UNDER NWS QUALITY CONTROL. THEY ALSO MAY NOT
  REPORT WEATHER SUCH AS PRECIPITATION OR FOG.

INZ001>027-070800-
NORTHERN INDIANA

CITY           SKY/WX    TMP DP  RH WIND       PRES   REMARKS
SOUTH BEND     CLOUDY    78  71  79 SW13      29.87F
GOSHEN         CLOUDY    76  70  82 SW12      29.88F
ANGOLA*          N/A     75  70  83 SW8       29.90F
FORT WAYNE     CLOUDY    75  70  84 S8        29.92S

$$
INZ028>050-070800-
CENTRAL INDIANA

CITY           SKY/WX    TMP DP  RH WIND       PRES   REMARKS
LAFAYETTE      CLOUDY    75  71  87 S10G16    29.89S
KOKOMO*        CLOUDY    77  70  78 SW13G20   29.91S
MUNCIE*        CLOUDY    77  70  79 SW9       29.94S
INDIANAPOLIS   CLOUDY    76  70  82 S13       29.92F

$$
MIZ043>046-050>051-056>058-064>065-071>073-077>080-070800-
SOUTHWEST LOWER MICHIGAN

CITY           SKY/WX    TMP DP  RH WIND       PRES   REMARKS
BATTLE CREEK   CLOUDY    76  68  76 S13       29.86F
BENTON HARBOR  HVY RAIN  71  69  93 SW7       29.86S FOG
COLDWATER*     CLOUDY    75  67  78 SW7       29.88F
HILLSDALE*     CLOUDY    73  70  89 S6        29.90F
HOLLAND        CLOUDY    72  66  81 SW9       29.84F
GRAND RAPIDS   CLOUDY    73  70  90 SW13G21   29.84S
KALAMAZOO      CLOUDY    77  70  79 S10       29.86F
STURGIS*       CLOUDY    73  70  88 S8        29.87F
THREE RIVERS*  MOCLDY    76  70  82 SW6       29.87F

$$
OHZ001>008-015>018-024>025-070800-
NORTHWEST OHIO

CITY           SKY/WX    TMP DP  RH WIND       PRES   REMARKS
DEFIANCE       CLOUDY    75  68  78 S7        29.90F
FINDLAY        PTCLDY    71  65  81 S9        29.93F
TOLEDO EXPRESS CLOUDY    72  66  81 S8        29.90F
TOLEDO METCALF MOCLDY    73  64  73 S10       29.92F
LIMA           PTCLDY    72  67  84 S9        29.94F HAZE

$$
AND FOR LAKE MICHIGAN COASTAL AND OPEN LAKE BUOY OBSERVATIONS

STATION/POSITION TEMP    WIND        PRES    VSBY  WAVE
                 AIR SEA DIR/SP/G                  HT/PER
                 (F)     (DEG/KT/KT) (MB)    (MI)  (FT/S)
CALUMET HARBOR    72     210/  3/  6   N/A
MICHIGAN CITY     76     170/ 11/ 14   N/A
BURNS HARBOR      75     250/ 10/ 15 1011.5S
SAINT JOSEPH      70     250/  8/ 12 1012.2R
4 MI NW BRIDGMAN  70 66  310/  8/ 25   N/A           1/ 3
MICHIGAN CITY     71 68  270/  8/ 12   N/A           1

$$
&&


USA.gov is the U.S. government's official web portal to all federal, state and local government web resources and services.